User: anonymous   Login
Location: Broad Creek
(39.7000°N, 76.2570°W)
Time: 17:15:43
(UTC-04:00)
Language:

ATLAS 5 CENTAUR R/B - Orbit

View from above orbital plane
View from above orbital plane
View from above satellite
View from above satellite

Ground track
Ground track

The orbit data is extracted from the following two-line orbital elements,

1 31702U 07027B   18137.30356393 0.00000300  00000-0  86615-4 0    07
2 31702  63.3626 328.9699 0319435   7.8124 352.1876 14.18639900    07
Epoch (UTC): 17 May 2018 07:17:07
Eccentricity: 0.0319435
inclination: 63.3626°
perigee height: 600 km
apogee height: 1060 km
right ascension of ascending node: 328.9699°
argument of perigee: 7.8124°
revolutions per day: 14.18639900
mean anomaly at epoch: 352.1876°
orbit number at epoch: 0

The dashed part of the orbit path shows where the satellite is in the earth's shadow,  

DLR